Flag for U.S.A. Weather past 2 weeks in San Jose, California, U.S.A.

Now
49 °F

Passing clouds.


Feels Like: 49 °F
Forecast: 48 / 67 °F
Wind: No wind

Location: San Jose International Airport


UV Index: 5 (Moderate)

Visibility: 10 mi


Pressure: 30.12 "Hg

Humidity: 69%

Dew point: 39 °F

Location of San JoseLocation

Historic Weather in San Jose

°F

San Jose temperature yesterday

Maximum temperature yesterday: 64 °F (at 1:53 PM)
Minimum temperature yesterday: 51 °F (at 2:53 AM)
Average temperature yesterday: 56 °F

Past Weeks' High & Low Weather Summary

 TemperatureHumidityPressure
High86 °F (Apr 8, 2:53 PM)93% (Apr 9, 5:53 AM)30.14 "Hg (Apr 9, 5:53 AM)
Low49 °F (Apr 23, 2:53 AM)22% (Apr 20, 3:53 PM)29.80 "Hg (Apr 17, 5:53 AM)
Average61 °F65%29.99 "Hg
* Reported Apr 8 5:53 AM — Apr 23 5:53 AM, San Jose, Weather by CustomWeather, © 2014

Note: Actual official high and low records may vary slightly from our data, if they occured in-between our weather recording intervals... More about our weather records

Advertising

Historic Weather Conditions — Data for Previous 24 hours

 ConditionsComfort  
Time TempWeatherWind HumidityBarometerVisibility
5:53 AM
Apr 23
49 °FPassing clouds.No wind69%30.12 "Hg10 mi
4:53 AM49 °FClear.No wind64%30.11 "Hg10 mi
3:53 AM50 °FClear.7 mph63%30.11 "Hg10 mi
2:53 AM49 °FClear.5 mph69%30.11 "Hg10 mi
1:53 AM50 °FClear.8 mph66%30.12 "Hg10 mi
12:53 AM51 °FClear.10 mph66%30.13 "Hg10 mi
11:53 PM
Apr 22
51 °FPassing clouds.14 mph63%30.14 "Hg10 mi
10:53 PM52 °FPassing clouds.13 mph59%30.13 "Hg10 mi
9:53 PM52 °FPassing clouds.16 mph57%30.13 "Hg10 mi
8:53 PM53 °FPassing clouds.15 mph52%30.12 "Hg10 mi
7:53 PM55 °FScattered clouds.14 mph49%30.11 "Hg10 mi
6:53 PM58 °FBroken clouds.16 mph44%30.10 "Hg10 mi
5:53 PM60 °FScattered clouds.18 mph39%30.10 "Hg10 mi
4:53 PM61 °FScattered clouds.17 mph42%30.10 "Hg10 mi
3:53 PM63 °FPassing clouds.24 mph33%30.09 "Hg10 mi
2:53 PM64 °FScattered clouds.17 mph25%30.09 "Hg10 mi
1:53 PM64 °FPassing clouds.18 mph34%30.09 "Hg10 mi
12:53 PM62 °FPassing clouds.18 mph39%30.10 "Hg10 mi
11:53 AM61 °FPassing clouds.16 mph39%30.11 "Hg10 mi
10:53 AM60 °FPassing clouds.16 mph42%30.11 "Hg10 mi
9:53 AM58 °FPassing clouds.13 mph51%30.10 "Hg10 mi
8:53 AM55 °FPassing clouds.14 mph57%30.09 "Hg10 mi
7:53 AM51 °FScattered clouds.14 mph71%30.09 "Hg10 mi
Weather by CustomWeather, © 2014

See weather overview